Year,Month,Day,Hour,Minute,Value (Times are PST for temperature in C)
2017,04,25,00,00,8.70
2017,04,25,00,01,8.70
2017,04,25,00,02,8.70
2017,04,25,00,03,8.70
2017,04,25,00,04,8.70
2017,04,25,00,05,8.70
2017,04,25,00,06,8.70
2017,04,25,00,07,8.70
2017,04,25,00,08,8.60
2017,04,25,00,09,8.60
2017,04,25,00,10,8.60
2017,04,25,00,11,8.60
2017,04,25,00,12,8.60
2017,04,25,00,13,8.60
2017,04,25,00,14,8.60
2017,04,25,00,15,8.50
2017,04,25,00,16,8.50
2017,04,25,00,17,8.50
2017,04,25,00,18,8.50
2017,04,25,00,19,8.50
2017,04,25,00,20,8.50
2017,04,25,00,21,8.50
2017,04,25,00,22,8.60
2017,04,25,00,23,8.60
2017,04,25,00,24,8.60
2017,04,25,00,25,8.60
2017,04,25,00,26,8.60
2017,04,25,00,27,8.60
2017,04,25,00,28,8.60
2017,04,25,00,29,8.60
2017,04,25,00,30,8.60
2017,04,25,00,31,8.60
2017,04,25,00,32,8.60
2017,04,25,00,33,8.60
2017,04,25,00,34,8.50
2017,04,25,00,35,8.50
2017,04,25,00,36,8.40
2017,04,25,00,37,8.40
2017,04,25,00,38,8.30
2017,04,25,00,39,8.30
2017,04,25,00,40,8.30
2017,04,25,00,41,8.20
2017,04,25,00,42,8.20
2017,04,25,00,43,8.20
2017,04,25,00,44,8.20
2017,04,25,00,45,8.10
2017,04,25,00,46,8.10
2017,04,25,00,47,8.10
2017,04,25,00,48,8.10
2017,04,25,00,49,8.00
2017,04,25,00,50,8.00
2017,04,25,00,51,8.00
2017,04,25,00,52,7.90
2017,04,25,00,53,7.90
2017,04,25,00,54,7.90
2017,04,25,00,55,7.80
2017,04,25,00,56,7.80
2017,04,25,00,57,7.80
2017,04,25,00,58,7.80
2017,04,25,00,59,7.70
2017,04,25,01,00,7.70
2017,04,25,01,01,7.70
2017,04,25,01,02,7.60
2017,04,25,01,03,7.60
2017,04,25,01,04,7.60
2017,04,25,01,05,7.60
2017,04,25,01,06,7.50
2017,04,25,01,07,7.50
2017,04,25,01,08,7.50
2017,04,25,01,09,7.40
2017,04,25,01,10,7.40
2017,04,25,01,11,7.40
2017,04,25,01,12,7.40
2017,04,25,01,13,7.40
2017,04,25,01,14,7.30
2017,04,25,01,15,7.30
2017,04,25,01,16,7.30
2017,04,25,01,17,7.30
2017,04,25,01,18,7.20
2017,04,25,01,19,7.20
2017,04,25,01,20,7.20
2017,04,25,01,21,7.20
2017,04,25,01,22,7.20
2017,04,25,01,23,7.20
2017,04,25,01,24,7.20
2017,04,25,01,25,7.20
2017,04,25,01,26,7.20
2017,04,25,01,27,7.20
2017,04,25,01,28,7.20
2017,04,25,01,29,7.20
2017,04,25,01,30,7.20
2017,04,25,01,31,7.20
2017,04,25,01,32,7.20
2017,04,25,01,33,7.20
2017,04,25,01,34,7.10
2017,04,25,01,35,7.10
2017,04,25,01,36,7.10
2017,04,25,01,37,7.10
2017,04,25,01,38,7.00
2017,04,25,01,39,7.00
2017,04,25,01,40,7.00
2017,04,25,01,41,6.90
2017,04,25,01,42,6.90
2017,04,25,01,43,6.90
2017,04,25,01,44,6.90
2017,04,25,01,45,6.80
2017,04,25,01,46,6.80
2017,04,25,01,47,6.80
2017,04,25,01,48,6.70
2017,04,25,01,49,6.70
2017,04,25,01,50,6.70
2017,04,25,01,51,6.60
2017,04,25,01,52,6.60
2017,04,25,01,53,6.60
2017,04,25,01,54,6.50
2017,04,25,01,55,6.50
2017,04,25,01,56,6.50
2017,04,25,01,57,6.40
2017,04,25,01,58,6.40
2017,04,25,01,59,6.40
2017,04,25,02,00,6.30
2017,04,25,02,01,6.30
2017,04,25,02,02,6.30
2017,04,25,02,03,6.20
2017,04,25,02,04,6.20
2017,04,25,02,05,6.20
2017,04,25,02,06,6.20
2017,04,25,02,07,6.10
2017,04,25,02,08,6.10
2017,04,25,02,09,6.10
2017,04,25,02,10,6.00
2017,04,25,02,11,6.00
2017,04,25,02,12,6.00
2017,04,25,02,13,5.90
2017,04,25,02,14,5.90
2017,04,25,02,15,5.90
2017,04,25,02,16,5.90
2017,04,25,02,17,5.90
2017,04,25,02,18,5.80
2017,04,25,02,19,5.80
2017,04,25,02,20,5.80
2017,04,25,02,21,5.80
2017,04,25,02,22,5.80
2017,04,25,02,23,5.70
2017,04,25,02,24,5.70
2017,04,25,02,25,5.70
2017,04,25,02,26,5.70
2017,04,25,02,27,5.70
2017,04,25,02,28,5.70
2017,04,25,02,29,5.60
2017,04,25,02,30,5.60
2017,04,25,02,31,5.60
2017,04,25,02,32,5.60
2017,04,25,02,33,5.50
2017,04,25,02,34,5.50
2017,04,25,02,35,5.40
2017,04,25,02,36,5.40
2017,04,25,02,37,5.40
2017,04,25,02,38,5.30
2017,04,25,02,39,5.30
2017,04,25,02,40,5.30
2017,04,25,02,41,5.30
2017,04,25,02,42,5.30
2017,04,25,02,43,5.20
2017,04,25,02,44,5.20
2017,04,25,02,45,5.20
2017,04,25,02,46,5.20
2017,04,25,02,47,5.10
2017,04,25,02,48,5.10
2017,04,25,02,49,5.10
2017,04,25,02,50,5.10
2017,04,25,02,51,5.10
2017,04,25,02,52,5.10
2017,04,25,02,53,5.10
2017,04,25,02,54,5.00
2017,04,25,02,55,5.00
2017,04,25,02,56,5.00
2017,04,25,02,57,5.00
2017,04,25,02,58,4.90
2017,04,25,02,59,4.90
2017,04,25,03,00,4.90
2017,04,25,03,01,4.90
2017,04,25,03,02,4.90
2017,04,25,03,03,4.90
2017,04,25,03,04,4.90
2017,04,25,03,05,4.90
2017,04,25,03,06,4.90
2017,04,25,03,07,4.90
2017,04,25,03,08,5.00
2017,04,25,03,09,5.00
2017,04,25,03,10,4.90
2017,04,25,03,11,4.90
2017,04,25,03,12,4.90
2017,04,25,03,13,4.90
2017,04,25,03,14,4.90
2017,04,25,03,15,4.90
2017,04,25,03,16,4.90
2017,04,25,03,17,4.90
2017,04,25,03,18,4.80
2017,04,25,03,19,4.80
2017,04,25,03,20,4.80
2017,04,25,03,21,4.80
2017,04,25,03,22,4.80
2017,04,25,03,23,4.80
2017,04,25,03,24,4.80
2017,04,25,03,25,4.80
2017,04,25,03,26,4.80
2017,04,25,03,27,4.80
2017,04,25,03,28,4.70
2017,04,25,03,29,4.70
2017,04,25,03,30,4.70
2017,04,25,03,31,4.70
2017,04,25,03,32,4.70
2017,04,25,03,33,4.70
2017,04,25,03,34,4.60
2017,04,25,03,35,4.60
2017,04,25,03,36,4.60
2017,04,25,03,37,4.60
2017,04,25,03,38,4.60
2017,04,25,03,39,4.60
2017,04,25,03,40,4.50
2017,04,25,03,41,4.50
2017,04,25,03,42,4.50
2017,04,25,03,43,4.50
2017,04,25,03,44,4.50
2017,04,25,03,45,4.50
2017,04,25,03,46,4.40
2017,04,25,03,47,4.40
2017,04,25,03,48,4.40
2017,04,25,03,49,4.40
2017,04,25,03,50,4.40
2017,04,25,03,51,4.40
2017,04,25,03,52,4.40
2017,04,25,03,53,4.40
2017,04,25,03,54,4.40
2017,04,25,03,55,4.40
2017,04,25,03,56,4.40
2017,04,25,03,57,4.40
2017,04,25,03,58,4.30
2017,04,25,03,59,4.30
2017,04,25,04,00,4.30
2017,04,25,04,01,4.30
2017,04,25,04,02,4.30
2017,04,25,04,03,4.40
2017,04,25,04,04,4.40
2017,04,25,04,05,4.50
2017,04,25,04,06,4.60
2017,04,25,04,07,4.70
2017,04,25,04,08,4.90
2017,04,25,04,09,4.90
2017,04,25,04,10,5.00
2017,04,25,04,11,5.10
2017,04,25,04,12,5.10
2017,04,25,04,13,5.10
2017,04,25,04,14,5.20
2017,04,25,04,15,5.30
2017,04,25,04,16,5.30
2017,04,25,04,17,5.40
2017,04,25,04,18,5.50
2017,04,25,04,19,5.50
2017,04,25,04,20,5.50
2017,04,25,04,21,5.60
2017,04,25,04,22,5.70
2017,04,25,04,23,5.70
2017,04,25,04,24,5.80
2017,04,25,04,25,5.80
2017,04,25,04,26,5.80
2017,04,25,04,27,5.90
2017,04,25,04,28,5.90
2017,04,25,04,29,5.90
2017,04,25,04,30,5.90
2017,04,25,04,31,5.90
2017,04,25,04,32,5.90
2017,04,25,04,33,6.00
2017,04,25,04,34,6.00
2017,04,25,04,35,6.00
2017,04,25,04,36,6.00
2017,04,25,04,37,6.10
2017,04,25,04,38,6.10
2017,04,25,04,39,6.10
2017,04,25,04,40,6.10
2017,04,25,04,41,6.10
2017,04,25,04,42,6.10
2017,04,25,04,43,6.20
2017,04,25,04,44,6.20
2017,04,25,04,45,6.20
2017,04,25,04,46,6.30
2017,04,25,04,47,6.30
2017,04,25,04,48,6.30
2017,04,25,04,49,6.40
2017,04,25,04,50,6.40
2017,04,25,04,51,6.40
2017,04,25,04,52,6.40
2017,04,25,04,53,6.40
2017,04,25,04,54,6.40
2017,04,25,04,55,6.40
2017,04,25,04,56,6.50
2017,04,25,04,57,6.50
2017,04,25,04,58,6.50
2017,04,25,04,59,6.50
2017,04,25,05,00,6.60
2017,04,25,05,01,6.60
2017,04,25,05,02,6.60
2017,04,25,05,03,6.60
2017,04,25,05,04,6.60
2017,04,25,05,05,6.60
2017,04,25,05,06,6.70
2017,04,25,05,07,6.70
2017,04,25,05,08,6.70
2017,04,25,05,09,6.70
2017,04,25,05,10,6.70
2017,04,25,05,11,6.70
2017,04,25,05,12,6.70
2017,04,25,05,13,6.70
2017,04,25,05,14,6.70
2017,04,25,05,15,6.70
2017,04,25,05,16,6.70
2017,04,25,05,17,6.70
2017,04,25,05,18,6.70
2017,04,25,05,19,6.70
2017,04,25,05,20,6.80
2017,04,25,05,21,6.80
2017,04,25,05,22,6.80
2017,04,25,05,23,6.80
2017,04,25,05,24,6.80
2017,04,25,05,25,6.90
2017,04,25,05,26,6.90
2017,04,25,05,27,6.90
2017,04,25,05,28,6.90
2017,04,25,05,29,6.90
2017,04,25,05,30,6.90
2017,04,25,05,31,7.00
2017,04,25,05,32,7.00
2017,04,25,05,33,7.00
2017,04,25,05,34,7.00
2017,04,25,05,35,7.00
2017,04,25,05,36,7.00
2017,04,25,05,37,7.00
2017,04,25,05,38,7.00
2017,04,25,05,39,7.00
2017,04,25,05,40,6.90
2017,04,25,05,41,6.90
2017,04,25,05,42,6.90
2017,04,25,05,43,6.90
2017,04,25,05,44,6.90
2017,04,25,05,45,6.90
2017,04,25,05,46,6.90
2017,04,25,05,47,6.90
2017,04,25,05,48,6.90
2017,04,25,05,49,7.00
2017,04,25,05,50,7.00
2017,04,25,05,51,7.00
2017,04,25,05,52,7.00
2017,04,25,05,53,7.00
2017,04,25,05,54,7.00
2017,04,25,05,55,7.00
2017,04,25,05,56,7.00
2017,04,25,05,57,7.00
2017,04,25,05,58,7.10
2017,04,25,05,59,7.10
2017,04,25,06,00,7.10
2017,04,25,06,01,7.10
2017,04,25,06,02,7.10
2017,04,25,06,03,7.10
2017,04,25,06,04,7.20
2017,04,25,06,05,7.20
2017,04,25,06,06,7.20
2017,04,25,06,07,7.20
2017,04,25,06,08,7.20
2017,04,25,06,09,7.20
2017,04,25,06,10,7.20
2017,04,25,06,11,7.20
2017,04,25,06,12,7.20
2017,04,25,06,13,7.20
2017,04,25,06,14,7.20
2017,04,25,06,15,7.20
2017,04,25,06,16,7.20
2017,04,25,06,17,7.20
2017,04,25,06,18,7.20
2017,04,25,06,19,7.20
2017,04,25,06,20,7.20
2017,04,25,06,21,7.20
2017,04,25,06,22,7.20
2017,04,25,06,23,7.20
2017,04,25,06,24,7.20
2017,04,25,06,25,7.20
2017,04,25,06,26,7.20
2017,04,25,06,27,7.20
2017,04,25,06,28,7.20
2017,04,25,06,29,7.20
2017,04,25,06,30,7.20
2017,04,25,06,31,7.20
2017,04,25,06,32,7.20
2017,04,25,06,33,7.20
2017,04,25,06,34,7.20
2017,04,25,06,35,7.20
2017,04,25,06,36,7.20
2017,04,25,06,37,7.20
2017,04,25,06,38,7.20
2017,04,25,06,39,7.20
2017,04,25,06,40,7.20
2017,04,25,06,41,7.20
2017,04,25,06,42,7.20
2017,04,25,06,43,7.20
2017,04,25,06,44,7.20
2017,04,25,06,45,7.20
2017,04,25,06,46,7.20
2017,04,25,06,47,7.20
2017,04,25,06,48,7.30
2017,04,25,06,49,7.30
2017,04,25,06,50,7.30
2017,04,25,06,51,7.30
2017,04,25,06,52,7.30
2017,04,25,06,53,7.30
2017,04,25,06,54,7.30
2017,04,25,06,55,7.30
2017,04,25,06,56,7.30
2017,04,25,06,57,7.30
2017,04,25,06,58,7.30
2017,04,25,06,59,7.40
2017,04,25,07,00,7.40
2017,04,25,07,01,7.40
2017,04,25,07,02,7.40
2017,04,25,07,03,7.40
2017,04,25,07,04,7.40
2017,04,25,07,05,7.50
2017,04,25,07,06,7.50
2017,04,25,07,07,7.50
2017,04,25,07,08,7.50
2017,04,25,07,09,7.60
2017,04,25,07,10,7.60
2017,04,25,07,11,7.60
2017,04,25,07,12,7.70
2017,04,25,07,13,7.70
2017,04,25,07,14,7.70
2017,04,25,07,15,7.80
2017,04,25,07,16,7.80
2017,04,25,07,17,7.80
2017,04,25,07,18,7.90
2017,04,25,07,19,7.90
2017,04,25,07,20,8.00
2017,04,25,07,21,8.00
2017,04,25,07,22,8.00
2017,04,25,07,23,8.10
2017,04,25,07,24,8.10
2017,04,25,07,25,8.10
2017,04,25,07,26,8.10
2017,04,25,07,27,8.20
2017,04,25,07,28,8.20
2017,04,25,07,29,8.20
2017,04,25,07,30,8.20
2017,04,25,07,31,8.20
2017,04,25,07,32,8.20
2017,04,25,07,33,8.20
2017,04,25,07,34,8.20
2017,04,25,07,35,8.30
2017,04,25,07,36,8.30
2017,04,25,07,37,8.30
2017,04,25,07,38,8.30
2017,04,25,07,39,8.40
2017,04,25,07,40,8.40
2017,04,25,07,41,8.40
2017,04,25,07,42,8.40
2017,04,25,07,43,8.40
2017,04,25,07,44,8.40
2017,04,25,07,45,8.40
2017,04,25,07,46,8.50
2017,04,25,07,47,8.50
2017,04,25,07,48,8.50
2017,04,25,07,49,8.50
2017,04,25,07,50,8.50
2017,04,25,07,51,8.50
2017,04,25,07,52,8.50
2017,04,25,07,53,8.50
2017,04,25,07,54,8.50
2017,04,25,07,55,8.50
2017,04,25,07,56,8.50
2017,04,25,07,57,8.60
2017,04,25,07,58,8.60
2017,04,25,07,59,8.60
2017,04,25,08,00,8.60
2017,04,25,08,01,8.70
2017,04,25,08,02,8.70
2017,04,25,08,03,8.70
2017,04,25,08,04,8.80
2017,04,25,08,05,8.80
2017,04,25,08,06,8.80
2017,04,25,08,07,8.80
2017,04,25,08,08,8.80
2017,04,25,08,09,8.90
2017,04,25,08,10,8.90
2017,04,25,08,11,8.90
2017,04,25,08,12,8.90
2017,04,25,08,13,8.90
2017,04,25,08,14,9.00
2017,04,25,08,15,9.00
2017,04,25,08,16,9.00
2017,04,25,08,17,9.10
2017,04,25,08,18,9.10
2017,04,25,08,19,9.10
2017,04,25,08,20,9.20
2017,04,25,08,21,9.20
2017,04,25,08,22,9.20
2017,04,25,08,23,9.30
2017,04,25,08,24,9.30
2017,04,25,08,25,9.30
2017,04,25,08,26,9.30
2017,04,25,08,27,9.40
2017,04,25,08,28,9.40
2017,04,25,08,29,9.40
2017,04,25,08,30,9.50
2017,04,25,08,31,9.60
2017,04,25,08,32,9.60
2017,04,25,08,33,9.60
2017,04,25,08,34,9.70
2017,04,25,08,35,9.70
2017,04,25,08,36,9.80
2017,04,25,08,37,9.90
2017,04,25,08,38,9.90
2017,04,25,08,39,9.90
2017,04,25,08,40,9.90
2017,04,25,08,41,9.90
2017,04,25,08,42,10.00
2017,04,25,08,43,10.00
2017,04,25,08,44,10.00
2017,04,25,08,45,10.10
2017,04,25,08,46,10.10
2017,04,25,08,47,10.10
2017,04,25,08,48,10.10
2017,04,25,08,49,10.20
2017,04,25,08,50,10.20
2017,04,25,08,51,10.20
2017,04,25,08,52,10.30
2017,04,25,08,53,10.30
2017,04,25,08,54,10.30
2017,04,25,08,55,10.30
2017,04,25,08,56,10.30
2017,04,25,08,57,10.40
2017,04,25,08,58,10.40
2017,04,25,08,59,10.50
2017,04,25,09,00,10.50
2017,04,25,09,01,10.60
2017,04,25,09,02,10.70
2017,04,25,09,03,10.70
2017,04,25,09,04,10.80
2017,04,25,09,05,10.80
2017,04,25,09,06,10.80
2017,04,25,09,07,10.80
2017,04,25,09,08,10.80
2017,04,25,09,09,10.90
2017,04,25,09,10,10.90
2017,04,25,09,11,10.90
2017,04,25,09,12,10.90
2017,04,25,09,13,10.90
2017,04,25,09,14,11.00
2017,04,25,09,15,11.00
2017,04,25,09,16,11.10
2017,04,25,09,17,11.10
2017,04,25,09,18,11.10
2017,04,25,09,19,11.10
2017,04,25,09,20,11.10
2017,04,25,09,21,11.10
2017,04,25,09,22,11.20
2017,04,25,09,23,11.20
2017,04,25,09,24,11.20
2017,04,25,09,25,11.20
2017,04,25,09,26,11.20
2017,04,25,09,27,11.20
2017,04,25,09,28,11.20
2017,04,25,09,29,11.20
2017,04,25,09,30,11.20
2017,04,25,09,31,11.30
2017,04,25,09,32,11.30
2017,04,25,09,33,11.30
2017,04,25,09,34,11.30
2017,04,25,09,35,11.30
2017,04,25,09,36,11.30
2017,04,25,09,37,11.30
2017,04,25,09,38,11.30
2017,04,25,09,39,11.30
2017,04,25,09,40,11.30
2017,04,25,09,41,11.30
2017,04,25,09,42,11.30
2017,04,25,09,43,11.30
2017,04,25,09,44,11.40
2017,04,25,09,45,11.40
2017,04,25,09,46,11.40
2017,04,25,09,47,11.40
2017,04,25,09,48,11.40
2017,04,25,09,49,11.40
2017,04,25,09,50,11.50
2017,04,25,09,51,11.50
2017,04,25,09,52,11.50
2017,04,25,09,53,11.50
2017,04,25,09,54,11.60
2017,04,25,09,55,11.60
2017,04,25,09,56,11.70
2017,04,25,09,57,11.70
2017,04,25,09,58,11.80
2017,04,25,09,59,11.90
2017,04,25,10,00,11.90
2017,04,25,10,01,12.00
2017,04,25,10,02,12.00
2017,04,25,10,03,12.00
2017,04,25,10,04,12.10
2017,04,25,10,05,12.10
2017,04,25,10,06,12.10
2017,04,25,10,07,12.10
2017,04,25,10,08,12.10
2017,04,25,10,09,12.00
2017,04,25,10,10,12.00
2017,04,25,10,11,12.00
2017,04,25,10,12,12.00
2017,04,25,10,13,12.10
2017,04,25,10,14,12.10
2017,04,25,10,15,12.10
2017,04,25,10,16,12.10
2017,04,25,10,17,12.00
2017,04,25,10,18,12.00
2017,04,25,10,19,12.00
2017,04,25,10,20,12.00
2017,04,25,10,21,12.00
2017,04,25,10,22,12.10
2017,04,25,10,23,12.10
2017,04,25,10,24,12.10
2017,04,25,10,25,12.10
2017,04,25,10,26,12.10
2017,04,25,10,27,12.10
2017,04,25,10,28,12.20
2017,04,25,10,29,12.20
2017,04,25,10,30,12.20
2017,04,25,10,31,12.20
2017,04,25,10,32,12.20
2017,04,25,10,33,12.20
2017,04,25,10,34,12.30
2017,04,25,10,35,12.30
2017,04,25,10,36,12.30
2017,04,25,10,37,12.40
2017,04,25,10,38,12.40
2017,04,25,10,39,12.50
2017,04,25,10,40,12.60
2017,04,25,10,41,12.60
2017,04,25,10,42,12.60
2017,04,25,10,43,12.60
2017,04,25,10,44,12.60
2017,04,25,10,45,12.60
2017,04,25,10,46,12.60
2017,04,25,10,47,12.60
2017,04,25,10,48,12.50
2017,04,25,10,49,12.50
2017,04,25,10,50,12.40
2017,04,25,10,51,12.30
2017,04,25,10,52,12.30
2017,04,25,10,53,12.30
2017,04,25,10,54,12.20
2017,04,25,10,55,12.20
2017,04,25,10,56,12.20
2017,04,25,10,57,12.20
2017,04,25,10,58,12.20
2017,04,25,10,59,12.20
2017,04,25,11,00,12.10
2017,04,25,11,01,12.20
2017,04,25,11,02,12.20
2017,04,25,11,03,12.20
2017,04,25,11,04,12.10
2017,04,25,11,05,12.10
2017,04,25,11,06,12.10
2017,04,25,11,07,12.10
2017,04,25,11,08,12.10
2017,04,25,11,09,12.10
2017,04,25,11,10,12.10
2017,04,25,11,11,12.10
2017,04,25,11,12,12.10
2017,04,25,11,13,12.10
2017,04,25,11,14,12.10
2017,04,25,11,15,12.10
2017,04,25,11,16,12.00
2017,04,25,11,17,11.90
2017,04,25,11,18,11.90
2017,04,25,11,19,11.90
2017,04,25,11,20,11.90
2017,04,25,11,21,11.90
2017,04,25,11,22,12.00
2017,04,25,11,23,12.00
2017,04,25,11,24,12.00
2017,04,25,11,25,11.90
2017,04,25,11,26,11.90
2017,04,25,11,27,11.90
2017,04,25,11,28,11.90
2017,04,25,11,29,11.90
2017,04,25,11,30,11.90
2017,04,25,11,31,11.90
2017,04,25,11,32,11.90
2017,04,25,11,33,11.90
2017,04,25,11,34,11.90
2017,04,25,11,35,11.90
2017,04,25,11,36,11.90
2017,04,25,11,37,11.90
2017,04,25,11,38,11.90
2017,04,25,11,39,11.90
2017,04,25,11,40,11.90
2017,04,25,11,41,11.80
2017,04,25,11,42,11.80
2017,04,25,11,43,11.80
2017,04,25,11,44,11.80
2017,04,25,11,45,11.70
2017,04,25,11,46,11.70
2017,04,25,11,47,11.70
2017,04,25,11,48,11.70
2017,04,25,11,49,11.70
2017,04,25,11,50,11.70
2017,04,25,11,51,11.70
2017,04,25,11,52,11.70
2017,04,25,11,53,11.70
2017,04,25,11,54,11.60
2017,04,25,11,55,11.60
2017,04,25,11,56,11.60
2017,04,25,11,57,11.60
2017,04,25,11,58,11.60
2017,04,25,11,59,11.60
2017,04,25,12,00,11.50
2017,04,25,12,01,11.50
2017,04,25,12,02,11.50
2017,04,25,12,03,11.40
2017,04,25,12,04,11.40
2017,04,25,12,05,11.30
2017,04,25,12,06,11.30
2017,04,25,12,07,11.30
2017,04,25,12,08,11.30
2017,04,25,12,09,11.20
2017,04,25,12,10,11.20
2017,04,25,12,11,11.20
2017,04,25,12,12,11.20
2017,04,25,12,13,11.10
2017,04,25,12,14,11.10
2017,04,25,12,15,11.10
2017,04,25,12,16,11.10
2017,04,25,12,17,11.10
2017,04,25,12,18,11.00
2017,04,25,12,19,11.00
2017,04,25,12,20,11.00
2017,04,25,12,21,11.00
2017,04,25,12,22,10.90
2017,04,25,12,23,10.90
2017,04,25,12,24,10.90
2017,04,25,12,25,10.90
2017,04,25,12,26,10.90
2017,04,25,12,27,10.90
2017,04,25,12,28,10.90
2017,04,25,12,29,10.90
2017,04,25,12,30,10.90
2017,04,25,12,31,10.90
2017,04,25,12,32,10.90
2017,04,25,12,33,10.90
2017,04,25,12,34,11.00
2017,04,25,12,35,11.00
2017,04,25,12,36,11.00
2017,04,25,12,37,11.00
2017,04,25,12,38,11.00
2017,04,25,12,39,11.00
2017,04,25,12,40,11.00
2017,04,25,12,41,11.00
2017,04,25,12,42,11.10
2017,04,25,12,43,11.00
2017,04,25,12,44,11.00
2017,04,25,12,45,11.00
2017,04,25,12,46,11.00
2017,04,25,12,47,11.10
2017,04,25,12,48,11.10
2017,04,25,12,49,11.10
2017,04,25,12,50,11.10
2017,04,25,12,51,11.10
2017,04,25,12,52,11.10
2017,04,25,12,53,11.10
2017,04,25,12,54,11.10
2017,04,25,12,55,11.20
2017,04,25,12,56,11.20
2017,04,25,12,57,11.20
2017,04,25,12,58,11.30
2017,04,25,12,59,11.30
2017,04,25,13,00,11.30
2017,04,25,13,01,11.40
2017,04,25,13,02,11.40
2017,04,25,13,03,11.40
2017,04,25,13,04,11.50
2017,04,25,13,05,11.60
2017,04,25,13,06,11.60
2017,04,25,13,07,11.60
2017,04,25,13,08,11.60
2017,04,25,13,09,11.70
2017,04,25,13,10,11.70
2017,04,25,13,11,11.70
2017,04,25,13,12,11.70
2017,04,25,13,13,11.80
2017,04,25,13,14,11.80
2017,04,25,13,15,11.80
2017,04,25,13,16,11.80
2017,04,25,13,17,11.80
2017,04,25,13,18,11.90
2017,04,25,13,19,11.90
2017,04,25,13,20,11.90
2017,04,25,13,21,11.90
2017,04,25,13,22,11.90
2017,04,25,13,23,11.90
2017,04,25,13,24,11.90
2017,04,25,13,25,12.00
2017,04,25,13,26,12.00
2017,04,25,13,27,12.00
2017,04,25,13,28,12.10
2017,04,25,13,29,12.10
2017,04,25,13,30,12.10
2017,04,25,13,31,12.10
2017,04,25,13,32,12.10
2017,04,25,13,33,12.00
2017,04,25,13,34,12.00
2017,04,25,13,35,12.00
2017,04,25,13,36,12.00
2017,04,25,13,37,12.00
2017,04,25,13,38,12.10
2017,04,25,13,39,12.10
2017,04,25,13,40,12.10
2017,04,25,13,41,12.10
2017,04,25,13,42,12.10
2017,04,25,13,43,12.10
2017,04,25,13,44,12.10
2017,04,25,13,45,12.10
2017,04,25,13,46,12.10
2017,04,25,13,47,12.10
2017,04,25,13,48,12.10
2017,04,25,13,49,12.10
2017,04,25,13,50,12.10
2017,04,25,13,51,12.10
2017,04,25,13,52,12.10
2017,04,25,13,53,12.10
2017,04,25,13,54,12.10
2017,04,25,13,55,12.10
2017,04,25,13,56,12.10
2017,04,25,13,57,12.10
2017,04,25,13,58,12.10
2017,04,25,13,59,12.10
2017,04,25,14,00,12.10
2017,04,25,14,01,12.10
2017,04,25,14,02,12.10
2017,04,25,14,03,12.10
2017,04,25,14,04,12.10
2017,04,25,14,05,12.10
2017,04,25,14,06,12.10
2017,04,25,14,07,12.10
2017,04,25,14,08,12.10
2017,04,25,14,09,12.10
2017,04,25,14,10,12.10
2017,04,25,14,11,12.10
2017,04,25,14,12,12.10
2017,04,25,14,13,12.10
2017,04,25,14,14,12.10
2017,04,25,14,15,12.10
2017,04,25,14,16,12.10
2017,04,25,14,17,12.10
2017,04,25,14,18,12.20
2017,04,25,14,19,12.20
2017,04,25,14,20,12.20
2017,04,25,14,21,12.20
2017,04,25,14,22,12.20
2017,04,25,14,23,12.20
2017,04,25,14,24,12.20
2017,04,25,14,25,12.20
2017,04,25,14,26,12.20
2017,04,25,14,27,12.30
2017,04,25,14,28,12.30
2017,04,25,14,29,12.40
2017,04,25,14,30,12.40
2017,04,25,14,31,12.40
2017,04,25,14,32,12.40
2017,04,25,14,33,12.40
2017,04,25,14,34,12.50
2017,04,25,14,35,12.50
2017,04,25,14,36,12.60
2017,04,25,14,37,12.60
2017,04,25,14,38,12.60
2017,04,25,14,39,12.60
2017,04,25,14,40,12.60
2017,04,25,14,41,12.60
2017,04,25,14,42,12.60
2017,04,25,14,43,12.60
2017,04,25,14,44,12.70
2017,04,25,14,45,12.70
2017,04,25,14,46,12.70
2017,04,25,14,47,12.70
2017,04,25,14,48,12.70
2017,04,25,14,49,12.70
2017,04,25,14,50,12.60
2017,04,25,14,51,12.60
2017,04,25,14,52,12.60
2017,04,25,14,53,12.60
2017,04,25,14,54,12.60
2017,04,25,14,55,12.60
2017,04,25,14,56,12.60
2017,04,25,14,57,12.60
2017,04,25,14,58,12.60
2017,04,25,14,59,12.60
2017,04,25,15,00,12.60
2017,04,25,15,01,12.70
2017,04,25,15,02,12.70
2017,04,25,15,03,12.70
2017,04,25,15,04,12.70
2017,04,25,15,05,12.70
2017,04,25,15,06,12.70
2017,04,25,15,07,12.70
2017,04,25,15,08,12.70
2017,04,25,15,09,12.70
2017,04,25,15,10,12.70
2017,04,25,15,11,12.70
2017,04,25,15,12,12.70
2017,04,25,15,13,12.70
2017,04,25,15,14,12.70
2017,04,25,15,15,12.70
2017,04,25,15,16,12.70
2017,04,25,15,17,12.70
2017,04,25,15,18,12.80
2017,04,25,15,19,12.80
2017,04,25,15,20,12.80
2017,04,25,15,21,12.90
2017,04,25,15,22,12.90
2017,04,25,15,23,13.00
2017,04,25,15,24,13.00
2017,04,25,15,25,13.10
2017,04,25,15,26,13.00
2017,04,25,15,27,13.00
2017,04,25,15,28,12.90
2017,04,25,15,29,12.90
2017,04,25,15,30,12.90
2017,04,25,15,31,12.90
2017,04,25,15,32,12.80
2017,04,25,15,33,12.80
2017,04,25,15,34,12.70
2017,04,25,15,35,12.70
2017,04,25,15,36,12.70
2017,04,25,15,37,12.70
2017,04,25,15,38,12.60
2017,04,25,15,39,12.60
2017,04,25,15,40,12.50
2017,04,25,15,41,12.50
2017,04,25,15,42,12.40
2017,04,25,15,43,12.50
2017,04,25,15,44,12.40
2017,04,25,15,45,12.50
2017,04,25,15,46,12.50
2017,04,25,15,47,12.50
2017,04,25,15,48,12.50
2017,04,25,15,49,12.50
2017,04,25,15,50,12.50
2017,04,25,15,51,12.50
2017,04,25,15,52,12.50
2017,04,25,15,53,12.50
2017,04,25,15,54,12.50
2017,04,25,15,55,12.50
2017,04,25,15,56,12.50
2017,04,25,15,57,12.50
2017,04,25,15,58,12.50
2017,04,25,15,59,12.50
2017,04,25,16,00,12.50
2017,04,25,16,01,12.60
2017,04,25,16,02,12.60
2017,04,25,16,03,12.60
2017,04,25,16,04,12.60
2017,04,25,16,05,12.50
2017,04,25,16,06,12.50
2017,04,25,16,07,12.50
2017,04,25,16,08,12.40
2017,04,25,16,09,12.40
2017,04,25,16,10,12.40
2017,04,25,16,11,12.30
2017,04,25,16,12,12.30
2017,04,25,16,13,12.30
2017,04,25,16,14,12.30
2017,04,25,16,15,12.30
2017,04,25,16,16,12.30
2017,04,25,16,17,12.30
2017,04,25,16,18,12.30
2017,04,25,16,19,12.30
2017,04,25,16,20,12.30
2017,04,25,16,21,12.30
2017,04,25,16,22,12.30
2017,04,25,16,23,12.30
2017,04,25,16,24,12.30
2017,04,25,16,25,12.40
2017,04,25,16,26,12.40
2017,04,25,16,27,12.30
2017,04,25,16,28,12.30
2017,04,25,16,29,12.30
2017,04,25,16,30,12.30
2017,04,25,16,31,12.30
2017,04,25,16,32,12.30
2017,04,25,16,33,12.30
2017,04,25,16,34,12.30
2017,04,25,16,35,12.30
2017,04,25,16,36,12.30
2017,04,25,16,37,12.30
2017,04,25,16,38,12.30
2017,04,25,16,39,12.30
2017,04,25,16,40,12.30
2017,04,25,16,41,12.30
2017,04,25,16,42,12.30
2017,04,25,16,43,12.30
2017,04,25,16,44,12.30
2017,04,25,16,45,12.30
2017,04,25,16,46,12.30
2017,04,25,16,47,12.30
2017,04,25,16,48,12.30
2017,04,25,16,49,12.30
2017,04,25,16,50,12.30
2017,04,25,16,51,12.30
2017,04,25,16,52,12.30
2017,04,25,16,53,12.30
2017,04,25,16,54,12.40
2017,04,25,16,55,12.40
2017,04,25,16,56,12.40
2017,04,25,16,57,12.30
2017,04,25,16,58,12.30
2017,04,25,16,59,12.30
2017,04,25,17,00,12.30
2017,04,25,17,01,12.30
2017,04,25,17,02,12.40
2017,04,25,17,03,12.40
2017,04,25,17,04,12.40
2017,04,25,17,05,12.40
2017,04,25,17,06,12.40
2017,04,25,17,07,12.40
2017,04,25,17,08,12.40
2017,04,25,17,09,12.30
2017,04,25,17,10,12.30
2017,04,25,17,11,12.30
2017,04,25,17,12,12.20
2017,04,25,17,13,12.20
2017,04,25,17,14,12.20
2017,04,25,17,15,12.20
2017,04,25,17,16,12.20
2017,04,25,17,17,12.20
2017,04,25,17,18,12.20
2017,04,25,17,19,12.10
2017,04,25,17,20,12.10
2017,04,25,17,21,12.10
2017,04,25,17,22,12.00
2017,04,25,17,23,12.00
2017,04,25,17,24,12.00
2017,04,25,17,25,11.90
2017,04,25,17,26,12.00
2017,04,25,17,27,11.90
2017,04,25,17,28,11.90
2017,04,25,17,29,11.90
2017,04,25,17,30,11.90
2017,04,25,17,31,11.90
2017,04,25,17,32,11.90
2017,04,25,17,33,11.90
2017,04,25,17,34,11.90
2017,04,25,17,35,11.80
2017,04,25,17,36,11.80
2017,04,25,17,37,11.80
2017,04,25,17,38,11.80
2017,04,25,17,39,11.80
2017,04,25,17,40,11.80
2017,04,25,17,41,11.80
2017,04,25,17,42,11.70